Willimantic, CT

1:18 AM EDT on April 27, 2017 (GMT -0400)
Windham

Weather History for KIJD - October, 2013

Change the Weather History Date:

Saturday, October 12, 2013

  Actual Average Record
Temperature  
Mean Temperature 60 °F -  
Max Temperature 69 °F 63 °F 87 °F (1954)
Min Temperature 50 °F 37 °F 19 °F (1964)
Degree Days  
Heating Degree Days 6    
Growing Degree Days 10 (Base 50)    
Moisture  
Dew Point 50 °F    
Average Humidity 74    
Maximum Humidity 86    
Minimum Humidity 58    
Precipitation  
Precipitation 0.00 in - - ()
Sea Level Pressure  
Sea Level Pressure 30.25 in    
Wind  
Wind Speed 9 mph (NE)    
Max Wind Speed 21 mph    
Max Gust Speed 25 mph    
Visibility 10 miles    
Events      
Averages and records for this station are not official NWS values.
T = Trace of Precipitation, MM = Missing Value Source: NWS Daily Summary

Daily Weather History Graph

Daily Weather History Graph

Search for Another Location

Airport or City:

Trip Planner

Search our weather history database for the weather conditions in past years. The results will help you decide how hot, cold, wet, or windy it might be!

Date:

Astronomy

Oct. 12, 2013 Rise Set
Actual Time 6:57 AM EDT 6:11 PM EDT
Civil Twilight 6:29 AM EDT 6:39 PM EDT
Nautical Twilight 5:57 AM EDT 7:11 PM EDT
Astronomical Twilight 5:25 AM EDT 7:44 PM EDT
Moon 2:24 PM EDT (10/12) No Moon Set
Length of Visible Light 12h 09m
Length of Day
11h 14m
First Quarter, 58% of the Moon is Illuminated
Oct 12
First Quarter
Oct 18
Full
Oct 26
Last Quarter
Nov 3
New
Nov 10
First Quarter

Hourly Weather History & Observations

Time (EDT) Temp. Dew Point Humidity Pressure Visibility Wind Dir Wind Speed Gust Speed Precip Events Conditions
12:52 AM 52.0 °F 46.0 °F 80% 30.14 in 10.0 mi NNE 3.5 mph - N/A   Clear
1:52 AM 52.0 °F 45.0 °F 77% 30.14 in 10.0 mi North 6.9 mph - N/A   Clear
2:52 AM 52.0 °F 45.0 °F 77% 30.14 in 10.0 mi North 4.6 mph - N/A   Clear
3:52 AM 53.1 °F 45.0 °F 74% 30.16 in 10.0 mi North 4.6 mph - N/A   Clear
4:52 AM 50.0 °F 46.0 °F 86% 30.17 in 10.0 mi Calm Calm - N/A   Clear
5:52 AM 53.1 °F 46.0 °F 77% 30.17 in 10.0 mi NNE 8.1 mph - N/A   Clear
6:52 AM 52.0 °F 46.0 °F 80% 30.19 in 10.0 mi North 5.8 mph - N/A   Clear
7:52 AM 55.0 °F 48.9 °F 80% 30.21 in 10.0 mi NNE 9.2 mph - N/A   Clear
8:52 AM 57.9 °F 51.1 °F 78% 30.23 in 10.0 mi NE 10.4 mph - N/A   Clear
9:52 AM 61.0 °F 51.1 °F 70% 30.23 in 10.0 mi NE 12.7 mph 23.0 mph N/A   Clear
10:52 AM 64.0 °F 52.0 °F 65% 30.25 in 10.0 mi NE 13.8 mph 20.7 mph N/A   Clear
11:52 AM 66.0 °F 53.1 °F 63% 30.25 in 10.0 mi ENE 11.5 mph 23.0 mph N/A   Partly Cloudy
12:52 PM 69.1 °F 54.0 °F 58% 30.24 in 10.0 mi NE 15.0 mph 23.0 mph N/A   Mostly Cloudy
1:52 PM 64.9 °F 53.1 °F 65% 30.25 in 10.0 mi NE 18.4 mph 24.2 mph N/A   Mostly Cloudy
2:25 PM 66.2 °F 53.6 °F 64% 30.26 in 10.0 mi NE 17.3 mph 24.2 mph N/A   Mostly Cloudy
2:52 PM 64.9 °F 53.1 °F 65% 30.27 in 10.0 mi ENE 20.7 mph - N/A   Mostly Cloudy
2:59 PM 64.4 °F 51.8 °F 64% 30.27 in 10.0 mi NE 15.0 mph 25.3 mph N/A   Mostly Cloudy
3:31 PM 64.4 °F 53.6 °F 68% 30.28 in 10.0 mi NE 13.8 mph 21.9 mph N/A   Mostly Cloudy
3:42 PM 62.6 °F 53.6 °F 72% 30.28 in 10.0 mi NE 13.8 mph - N/A   Overcast
3:52 PM 62.1 °F 53.1 °F 72% 30.29 in 10.0 mi NE 12.7 mph - N/A   Overcast
4:52 PM 61.0 °F 53.1 °F 75% 30.30 in 10.0 mi NE 9.2 mph - N/A   Mostly Cloudy
5:52 PM 60.1 °F 53.1 °F 78% 30.31 in 10.0 mi NE 12.7 mph - N/A   Overcast
6:52 PM 57.9 °F 52.0 °F 81% 30.32 in 10.0 mi NE 11.5 mph 17.3 mph N/A   Overcast
7:52 PM 57.0 °F 52.0 °F 83% 30.33 in 10.0 mi NE 8.1 mph - N/A   Mostly Cloudy
8:52 PM 57.0 °F 52.0 °F 83% 30.35 in 10.0 mi NE 10.4 mph - N/A   Overcast
9:52 PM 57.0 °F 51.1 °F 81% 30.35 in 10.0 mi ENE 9.2 mph - N/A   Overcast
10:52 PM 57.0 °F 48.9 °F 74% 30.36 in 10.0 mi ENE 6.9 mph 19.6 mph N/A   Overcast
11:52 PM 55.9 °F 50.0 °F 80% 30.37 in 10.0 mi NE 6.9 mph - N/A   Overcast